Flag Weather past 2 weeks in Selkirk, Manitoba, Canada

Now
24 °F

Cold.


Feels Like: 24 °F
Forecast: 24 / 37 °F
Wind: 2 mph from Southwest

Location: Winnipeg The Forks

Current Time: Oct 31, 2014 at 10:12:35 AM

Latest Report: Oct 31, 2014 at 9:00 AM


Visibility: N/A

Pressure: 30.62 "Hg

Humidity: 78%

Dew point: 18 °F

Location of SelkirkLocation

Historic Weather in Selkirk — Graph

°F

Selkirk temperature yesterday

Maximum temperature yesterday: 37 °F (at 2:00 PM)
Minimum temperature yesterday: 27 °F (at 11:00 PM)
Average temperature yesterday: 34 °F

Past Weeks' High & Low Weather Summary

 TemperatureHumidityPressure
High68 °F (Oct 24, 3:00 PM)89% (Oct 22, 8:00 PM)30.65 "Hg (Oct 22, 8:00 PM)
Low22 °F (Oct 31, 8:00 AM)28% (Oct 24, 4:00 PM)29.45 "Hg (Oct 27, 1:00 AM)
Average45 °F69%29.91 "Hg
* Reported Oct 16 8:00 AM — Oct 31 8:00 AM, Selkirk, Weather by CustomWeather, © 2014

Note: Actual official high and low records may vary slightly from our data, if they occured in-between our weather recording intervals... More about our weather records

Advertising

Selkirk weather history for previous 24 hours

 ConditionsComfort  
Time TempWeatherWind HumidityBarometerVisibility
8:00 AM
Oct 31
22 °FCold.1 mph83%30.63 "HgN/A
7:00 AM26 °FChilly.3 mph75%30.65 "HgN/A
6:00 AM24 °FCold.2 mph85%30.65 "HgN/A
5:00 AM24 °FCold.No wind78%30.63 "HgN/A
4:00 AM23 °FCold.1 mph82%30.63 "HgN/A
3:00 AM26 °FChilly.No wind76%30.65 "HgN/A
2:00 AM24 °FCold.1 mph79%30.65 "HgN/A
1:00 AM25 °FChilly.2 mph76%30.65 "HgN/A
12:00 AM26 °FChilly.2 mph75%30.63 "HgN/A
11:00 PM
Oct 30
27 °FChilly.3 mph72%30.62 "HgN/A
10:00 PM28 °FChilly.7 mph69%30.60 "HgN/A
9:00 PM29 °FChilly.7 mph65%30.60 "HgN/A
8:00 PM29 °FChilly.8 mph64%30.58 "HgN/A
7:00 PM30 °FChilly.7 mph59%30.55 "HgN/A
6:00 PM31 °FChilly.9 mph56%30.53 "HgN/A
5:00 PM34 °FChilly.12 mph52%30.48 "HgN/A
4:00 PM33 °FChilly.10 mph66%30.45 "HgN/A
3:00 PM37 °FChilly.13 mph51%30.41 "HgN/A
2:00 PM37 °FChilly.13 mph47%30.39 "HgN/A
1:00 PM36 °FChilly.9 mph60%30.37 "HgN/A
12:00 PM34 °FChilly.8 mph69%30.36 "HgN/A
11:00 AM34 °FChilly.10 mph67%30.34 "HgN/A
10:00 AM34 °FChilly.10 mph73%30.31 "HgN/A
Weather by CustomWeather, © 2014

See weather overviewHow to use our weather pages